Tracking 20942 objects as of 12-Jul-2020
HD Live streaming from Space Station
objects crossing your sky now

PEGASUS R/B

Track PEGASUS R/B now!
10-day predictions


NORAD ID: 32766
Int'l Code: 2008-017B
Perigee: 369.6 km
Apogee: 530.5 km
Inclination: 13.0 °
Period: 93.4 minutes
Semi major axis: 6821 km
RCS: 1.2481 m2 (large)
Launch date: April 16, 2008
Source: United States (US)
Launch site: Pegasus launched from Western Range Air Space (WRAS)

Note: This is a ROCKET BODY
aabbcc
Your satellite tracking list
Your tracking list is empty




NASA's NSSDC Master Catalog

Two Line Element Set (TLE):
1 32766U 08017B   20193.48655522  .00003209  00000-0  34480-4 0  9999
2 32766  12.9983 137.7769 0117946 208.6614 150.7140 15.41071277675947
Source of the keplerian elements: AFSPC